Nassau, Bahamas

5:16 AM EDT on May 23, 2017 (GMT -0400)
Nassau

Weather History for 78073 - October, 2012

Change the Weather History Date:

Tuesday, October 2, 2012

  Actual Average Record
Temperature  
Mean Temperature 81 °F -  
Max Temperature 87 °F 85 °F - ()
Min Temperature 75 °F 72 °F - ()
Cooling Degree Days 16    
Growing Degree Days 31 (Base 50)    
Moisture  
Dew Point 76 °F    
Average Humidity 83    
Maximum Humidity 94    
Minimum Humidity 70    
Precipitation  
Precipitation 0.28 in 0.22 in - ()
Sea Level Pressure  
Sea Level Pressure 30.01 in    
Wind  
Wind Speed 3 mph ()    
Max Wind Speed 12 mph    
Max Gust Speed -    
Visibility 6.4 miles    
Events Rain , Thunderstorm    
T = Trace of Precipitation, MM = Missing Value Source: Averaged Metar Reports

Daily Weather History Graph

Daily Weather History Graph

Search for Another Location

Airport or City:

Trip Planner

Search our weather history database for the weather conditions in past years. The results will help you decide how hot, cold, wet, or windy it might be!

Date:

Astronomy

Oct. 02, 2012 Rise Set
Actual Time 7:02 AM EDT 6:55 PM EDT
Civil Twilight 6:39 AM EDT 7:17 PM EDT
Nautical Twilight 6:13 AM EDT 7:44 PM EDT
Astronomical Twilight 5:46 AM EDT 8:10 PM EDT
Moon 8:28 PM EDT (10/2) 9:07 AM EDT (10/2)
Length of Visible Light 12h 38m
Length of Day
11h 52m
Waning Gibbous, 94% of the Moon is Illuminated
Oct 2
Waning Gibbous
Oct 8
Last Quarter
Oct 15
New
Oct 21
First Quarter
Oct 29
Full

Hourly Weather History & Observations

Time (EDT) Temp. Heat Index Dew Point Humidity Pressure Visibility Wind Dir Wind Speed Gust Speed Precip Events Conditions
12:00 AM 78.8 °F - 73.4 °F 83% 29.95 in 6.2 mi SW 2.3 mph - N/A   Mostly Cloudy
1:00 AM 78.8 °F - 73.4 °F 83% 29.94 in 6.2 mi Calm Calm - N/A   Mostly Cloudy
2:00 AM 78 °F - 76 °F 94% 29.94 in 8 mi Calm Calm - -   Partly Cloudy
2:00 AM 78.8 °F - 77.0 °F 94% 29.93 in 6.2 mi Calm Calm - N/A   Mostly Cloudy
3:00 AM 78.8 °F - 73.4 °F 83% 29.94 in 6.2 mi Calm Calm - N/A   Mostly Cloudy
4:00 AM 77.0 °F - 73.4 °F 89% 29.93 in 6.2 mi Calm Calm - N/A   Mostly Cloudy
5:00 AM 78 °F - 76 °F 93% 29.96 in 8 mi Calm Calm - -   Partly Cloudy
5:00 AM 78.8 °F - 75.2 °F 89% 29.96 in 6.2 mi Calm Calm - N/A   Mostly Cloudy
6:00 AM 78.8 °F - 75.2 °F 89% 29.96 in 6.2 mi Calm Calm - N/A Thunderstorm Thunderstorm
7:00 AM 77.0 °F - 73.4 °F 89% 29.97 in 6.2 mi SE 3.5 mph - N/A   Mostly Cloudy
7:30 AM 77.0 °F - 71.6 °F 83% 30.01 in 6.2 mi South 6.9 mph - N/A Rain , Thunderstorm Light Thunderstorms and Rain
8:00 AM 77.0 °F - 73.4 °F 89% 30.02 in 6.2 mi SSW 3.5 mph - N/A Rain , Thunderstorm Light Thunderstorms and Rain
9:00 AM 75.2 °F - 71.6 °F 89% 30.04 in 5.6 mi SSE 8.1 mph - N/A Rain , Thunderstorm Light Thunderstorms and Rain
10:00 AM 75.2 °F - 73.4 °F 94% 30.04 in 6.2 mi East 3.5 mph - N/A Rain Light Rain Showers
11:00 AM 77 °F - 75 °F 92% 30.05 in 8 mi ESE 3.5 mph - - Rain Light Rain
11:00 AM 77.0 °F - 75.2 °F 94% 30.05 in 6.2 mi ESE 3.5 mph - N/A Rain Light Rain
12:00 PM 80.6 °F 86.2 °F 75.2 °F 84% 30.04 in 6.2 mi Variable 2.3 mph - N/A   Mostly Cloudy
1:00 PM 84.2 °F 92.3 °F 75.2 °F 74% 30.03 in 6.2 mi SSE 4.6 mph - N/A   Mostly Cloudy
2:00 PM 86 °F - 78 °F 71% 30.01 in 8 mi ESE 4.6 mph - -   Partly Cloudy
2:00 PM 86.0 °F 99.3 °F 78.8 °F 79% 30.01 in 6.2 mi ESE 4.6 mph - N/A   Mostly Cloudy
3:00 PM 87.8 °F 99.7 °F 77.0 °F 70% 30.01 in 6.2 mi SE 11.5 mph - N/A   Mostly Cloudy
4:00 PM 86.0 °F 95.1 °F 75.2 °F 70% 30.01 in 6.2 mi SE 9.2 mph - N/A   Mostly Cloudy
5:00 PM 86 °F - 78 °F 71% 30.01 in 8 mi SE 11.5 mph - -   Partly Cloudy
5:00 PM 86.0 °F 99.3 °F 78.8 °F 79% 30.00 in 6.2 mi SE 11.5 mph - N/A   Mostly Cloudy
6:00 PM 84.2 °F 92.3 °F 75.2 °F 74% 30.01 in 6.2 mi SE 11.5 mph - N/A   Mostly Cloudy
7:00 PM 84.2 °F 92.3 °F 75.2 °F 74% 30.03 in 6.2 mi SE 4.6 mph - N/A   Mostly Cloudy
8:00 PM 84 °F - 77 °F 74% 30.04 in 8 mi ESE 6.9 mph - -   Scattered Clouds
8:00 PM 84.2 °F 94.1 °F 77.0 °F 79% 30.04 in 6.2 mi ESE 6.9 mph - N/A   Mostly Cloudy
9:00 PM 82.4 °F 89.5 °F 75.2 °F 79% 30.07 in 6.2 mi ESE 3.5 mph - N/A   Mostly Cloudy
10:00 PM 82.4 °F 89.5 °F 75.2 °F 79% 30.09 in 6.2 mi ESE 4.6 mph - N/A   Mostly Cloudy
11:00 PM 82 °F - 80 °F 91% 30.11 in 3 mi East 3.5 mph - -   Scattered Clouds
11:00 PM 82.4 °F 94.0 °F 80.6 °F 94% 30.11 in 6.2 mi East 3.5 mph - N/A   Mostly Cloudy